Temperature
17 17 17 17 17 17 17 17 17 17 17 17 17 17 17 17 17 17 17 17 17 17 17 17 17 17 17 17 17 17 17 17 17 17 17 18 18 17 17 17 17 17 17
18 17 17 17 17 17 17 17 17 17 17 17 17 17 17 17 17 17 17 17 17 17 17 17 17 17 17 17 17 17 17 17 17 17 17 17 17 17 17 17 17 17 17
18 17 17 17 17 17 17 17 17 17 17 17 17 17 17 17 17 17 17 17 17 17 17 17 17 17 17 17 17 17 17 17 17 17 17 17 17 17 17 17 17 17 17
17 17 17 17 17 17 17 17 17 17 17 17 17 17 17 17 17 17 17 17 17 17 17 17 17 17 17 17 17 17 17 17 17 17 17 17 17 17 17 17 17 17 17
17 17 17 17 17 17 17 17 17 17 17 17 17 17 17 17 17 17 17 17 17 17 17 17 17 17 17 17 17 17 17 17 17 17 17 17 17 17 17 17 17 17 17
17 17 17 17 17 17 17 17 17 17 17 16 17 17 17 17 16 16 16 16 16 16 16 16 16 17 16 17 17 17 17 17 17 17 17 17 17 17 17 17 17 17 17
17 17 17 17 17 17 17 17 16 16 16 16 16 16 16 16 16 16 16 16 16 16 16 16 16 16 16 16 16 16 16 16 16 17 16 16 16 16 16 16 16 16 17
17 17 17 17 17 17 17 16 16 16 16 16 16 16 16 16 16 16 16 16 16 16 16 16 16 16 16 16 16 16 16 16 16 16 16 16 16 16 16 16 16 16 16
17 17 17 17 17 16 16 16 16 16 16 16 16 16 16 16 16 16 16 16 16 16 16 16 16 16 16 16 16 16 16 16 16 16 16 16 16 16 16 16 16 16 16
17 17 17 17 16 16 16 16 16 16 16 16 16 16 16 16 15 15 15 15 15 15 15 16 16 16 16 16 16 16 16 16 16 16 15 15 15 15 15 15 16 16 16
17 17 17 17 16 16 16 16 16 16 16 16 16 16 16 15 15 15 15 15 15 15 15 15 15 15 16 16 16 16 16 15 15 15 15 15 15 15 15 15 15 15 15
17 17 17 17 16 16 16 16 16 16 16 16 16 16 16 15 15 15 15 15 15 15 15 15 15 15 15 15 15 15 15 15 15 15 15 15 15 15 15 15 15 15 15
17 17 17 17 16 16 16 16 16 16 16 16 16 16 15 15 15 15 15 15 15 15 15 15 15 15 15 15 15 15 15 15 15 15 15 15 15 15 15 15 15 15 15
17 17 17 17 16 16 16 16 16 16 16 16 16 15 15 15 15 15 15 15 15 15 15 15 15 15 15 15 15 15 15 15 15 15 15 15 15 15 15 15 14 14 14
17 17 17 17 17 16 16 16 16 16 16 15 15 15 15 15 15 15 15 15 15 15 15 15 15 15 15 15 15 15 15 15 15 15 15 15 15 15 14 14 14 14 14
17 17 17 17 16 16 16 16 16 16 16 15 15 15 15 15 15 15 15 15 15 15 15 15 15 15 15 15 15 15 14 14 15 15 15 15 15 14 14 14 14 14 14
17 17 17 17 16 16 16 16 16 16 15 15 15 15 15 15 15 15 15 15 15 15 15 15 15 15 15 15 14 14 14 14 14 14 14 14 14 14 14 14 14 14 14
17 17 17 16 16 16 16 16 16 16 15 15 15 15 15 15 15 15 15 15 14 14 14 14 14 14 14 14 14 14 14 14 14 14 14 14 14 14 14 14 14 14 14
17 17 16 16 16 16 16 16 16 16 15 15 15 15 15 15 15 15 15 14 14 14 14 14 14 14 14 14 14 14 14 14 14 14 14 14 14 14 14 14 14 14 13
17 17 17 16 16 16 16 16 16 15 15 15 15 15 15 15 15 14 14 14 14 14 14 14 14 14 14 14 14 14 14 14 14 14 14 14 14 14 13 13 13 13 13
17 17 16 16 16 16 16 16 16 15 15 15 15 15 15 15 15 14 14 14 14 14 14 14 14 14 14 14 14 14 14 14 14 14 13 13 13 13 13 13 13 13 13
17 17 16 16 16 16 16 15 15 15 15 15 15 15 15 14 14 14 14 14 14 14 14 14 14 14 14 14 14 14 13 13 13 13 13 13 13 13 13 13 13 13 13
16 16 16 16 16 16 15 15 15 15 15 15 15 15 14 14 14 14 14 14 14 14 14 14 14 14 14 14 13 14 13 13 13 13 13 13 13 13 13 13 13 13 13
16 16 16 16 16 16 15 15 15 15 15 15 15 14 14 14 14 14 14 14 14 14 14 14 14 14 14 14 13 13 13 13 13 13 13 13 13 13 13 13 13 13 12
16 16 16 16 16 16 15 15 15 15 15 14 14 14 14 14 14 14 14 14 14 14 14 14 14 14 14 13 13 13 13 13 13 13 13 13 13 13 13 12 12 12 12
16 16 16 16 15 15 15 15 15 15 15 14 14 14 14 14 14 14 14 14 14 14 14 14 14 13 13 13 13 13 13 13 13 13 13 13 13 12 12 12 12 12 12
Wind_Speed
2 3 1 2 4 4 5 6 6 6 7 8 9 9 10 10 10 10 10 10 10 9 9 10 10 10 10 9 9 10 10 10 10 10 10 9 8 8 8 8 7 6 7
2 1 2 3 4 5 5 5 5 6 7 8 9 9 10 10 10 10 10 9 10 9 10 10 10 10 11 11 10 10 10 11 11 10 10 9 8 8 8 7 7 6 7
2 1 3 4 5 5 5 5 5 6 7 8 9 9 9 9 9 10 10 9 9 9 9 9 10 10 11 11 11 11 11 11 11 10 9 7 7 8 8 8 8 8 7
3 3 3 4 5 5 5 6 7 8 8 8 8 8 9 9 9 9 10 10 10 10 10 10 10 10 10 10 11 11 11 11 11 10 8 7 6 8 8 8 8 8 7
3 3 3 5 6 6 7 8 8 9 8 8 8 8 9 9 10 10 10 10 11 11 11 11 11 11 11 11 11 12 12 12 11 10 9 7 6 7 8 8 8 7 7
3 3 3 6 6 7 7 8 9 8 8 8 8 8 9 9 9 10 10 10 11 11 11 12 12 12 12 12 12 12 12 12 11 9 8 8 7 8 9 8 8 8 7
3 3 3 6 6 7 8 8 8 8 9 9 10 10 10 10 10 9 10 10 11 11 11 12 12 12 13 12 12 12 12 12 11 9 8 7 7 9 10 9 9 9 8
3 3 3 5 6 6 7 7 7 8 8 9 10 11 10 10 10 10 10 11 11 12 12 12 12 13 13 13 13 13 12 11 10 9 8 7 8 9 9 9 10 10 9
3 3 3 4 4 5 6 7 7 7 8 9 10 10 9 9 9 10 10 10 10 11 12 12 12 13 13 13 13 13 13 13 10 8 8 7 8 9 9 10 10 10 10
3 2 3 3 4 4 4 5 6 7 8 8 9 9 9 9 9 9 9 10 10 11 11 12 12 13 13 13 14 13 13 11 10 8 7 8 8 9 10 10 11 11 11
2 1 1 2 2 3 3 4 5 6 7 7 7 8 8 8 8 7 9 9 10 10 11 12 12 13 13 13 14 13 11 9 8 7 7 9 11 11 12 12 11 11 11
3 2 1 1 1 2 2 4 4 4 5 6 6 6 6 7 7 7 9 9 10 10 11 12 13 13 12 10 11 11 10 10 8 7 8 10 11 11 12 12 12 12 12
3 3 2 2 2 2 1 3 3 4 4 5 5 5 5 6 7 7 7 8 9 9 9 10 11 10 10 9 8 9 9 9 8 8 9 11 11 11 12 12 12 12 13
3 3 2 2 2 2 2 2 2 3 3 3 3 4 4 4 4 4 5 6 7 7 7 8 7 9 9 9 9 9 9 8 8 8 9 11 12 12 12 12 12 12 12
3 3 2 2 2 2 2 1 2 2 2 3 3 3 4 4 3 3 3 5 5 6 6 6 6 6 6 7 8 8 7 8 9 9 9 11 12 12 12 12 12 12 12
3 3 3 3 3 3 2 2 2 2 3 3 3 3 4 4 4 3 3 3 4 5 6 6 5 5 4 5 6 6 7 7 8 8 9 10 11 12 12 12 12 12 12
3 2 2 3 3 3 2 2 2 2 3 3 2 3 4 5 5 4 3 2 3 5 6 6 6 5 4 4 5 5 5 6 7 7 8 9 9 10 11 11 12 11 11
2 2 2 2 3 2 2 2 2 2 3 2 3 3 4 5 5 4 3 2 3 5 5 4 3 4 4 4 3 3 4 4 5 6 7 8 8 8 8 10 10 10 10
3 2 2 2 2 2 2 2 2 3 2 2 3 3 4 5 5 5 3 3 5 4 3 3 3 3 3 3 3 3 4 3 3 5 5 6 7 7 7 8 9 9 9
2 2 2 2 2 2 2 2 2 2 1 2 3 3 5 5 5 5 4 4 4 4 3 3 4 3 3 2 3 4 3 3 3 3 3 4 5 6 6 7 7 7 7
2 2 2 2 2 2 1 1 1 1 0 1 1 3 4 5 5 5 4 3 3 3 3 3 3 4 2 2 3 3 3 3 4 3 3 3 4 5 5 6 6 6 6
2 2 2 2 2 2 2 1 2 2 1 0 1 2 3 3 4 4 4 3 3 3 3 3 3 2 1 1 2 2 2 4 3 3 3 2 3 4 4 4 5 5 5
2 2 2 1 1 1 2 2 2 3 2 1 1 1 1 2 3 4 5 4 3 3 3 2 3 3 2 1 1 3 2 2 2 3 2 2 2 2 2 3 4 4 4
2 2 2 2 1 1 2 3 3 3 2 2 1 1 1 2 2 3 4 4 4 3 3 3 2 2 3 2 1 1 1 3 2 1 2 2 2 2 2 2 2 3 3
2 2 2 2 1 1 2 3 4 3 2 1 1 2 1 1 1 2 3 3 3 3 3 2 2 2 2 3 2 1 2 2 1 2 1 2 2 2 1 1 1 1 2
1 1 2 2 1 1 2 2 4 4 4 3 2 2 1 0 0 1 2 2 3 2 2 2 2 3 2 2 2 2 2 2 2 3 2 1 1 2 2 2 1 1 1
Wind_Direction
272 271 193 109 103 100 94 95 91 89 87 87 87 85 81 78 77 78 80 82 82 82 82 82 79 79 78 78 83 87 86 87 91 90 92 95 99 99 96 90 85 82 91
197 230 157 111 102 96 97 95 96 93 90 89 89 86 83 80 78 79 80 82 83 83 83 81 80 78 76 77 81 83 84 83 84 85 88 86 88 91 91 89 85 85 88
136 155 139 108 100 94 87 81 92 104 97 93 91 88 86 83 81 81 79 80 81 84 84 81 80 79 76 76 79 82 83 84 82 80 80 73 78 85 83 83 85 84 84
128 117 122 111 102 92 83 82 96 104 99 94 90 90 90 87 84 84 81 78 78 79 81 79 80 79 77 77 80 83 83 82 80 75 67 64 71 80 80 80 85 83 83
102 100 119 110 100 92 83 83 96 98 96 90 87 89 93 91 87 84 82 80 76 73 73 75 76 75 76 76 78 80 80 79 77 68 62 59 63 79 79 78 79 81 78
97 90 108 107 99 94 88 84 88 89 87 86 85 92 97 94 88 82 82 79 77 75 73 74 74 71 71 76 76 77 79 77 70 62 59 59 63 75 78 77 76 80 78
113 94 104 110 104 94 88 85 84 83 81 82 88 95 96 93 88 83 81 78 76 75 77 78 74 72 72 73 75 77 79 76 68 61 56 58 66 72 73 73 72 75 76
124 103 98 105 101 98 95 91 88 84 81 82 86 89 89 88 84 80 79 77 75 75 78 79 75 74 74 73 74 76 74 72 65 59 50 52 63 68 70 73 72 74 73
96 95 84 85 89 94 99 97 93 87 82 82 85 87 87 85 82 80 78 79 79 79 81 82 79 77 77 77 75 73 70 67 57 51 50 53 67 72 72 74 76 76 73
77 82 85 80 83 85 91 97 95 91 87 84 84 83 78 74 76 79 77 80 80 81 82 80 78 75 75 78 75 71 67 60 52 46 44 57 74 79 78 78 79 77 74
121 82 92 88 79 86 92 92 87 83 82 79 79 81 69 60 60 65 73 77 78 79 80 80 79 77 74 75 74 70 62 55 50 44 47 64 74 78 78 77 78 75 73
182 189 163 132 105 87 94 81 77 74 73 71 73 73 69 64 58 62 67 71 75 77 78 80 79 74 68 64 65 63 57 51 46 42 53 68 74 80 80 78 76 72 70
191 193 179 166 136 112 92 92 85 84 79 76 80 80 80 72 63 62 60 60 65 70 72 73 71 68 66 63 61 58 54 50 42 41 49 64 70 76 79 79 77 74 72
178 197 179 159 144 145 128 105 100 97 94 96 99 95 93 83 70 66 65 63 68 74 77 75 76 72 68 63 62 60 52 48 42 40 44 58 65 74 79 78 76 75 75
185 193 183 172 163 151 125 126 119 122 124 130 121 115 116 109 94 82 74 73 73 80 85 83 78 73 67 60 58 58 52 46 43 43 39 52 60 67 74 76 76 75 75
196 191 175 168 165 149 142 145 141 154 150 139 140 143 137 129 118 104 87 79 77 85 92 91 86 80 69 66 57 52 49 47 45 44 41 42 53 62 67 72 75 74 73
203 189 176 176 156 153 158 169 156 152 142 140 154 155 142 137 128 118 103 90 89 98 97 89 79 75 71 63 52 46 47 44 45 42 41 40 42 52 60 66 71 72 73
187 172 189 177 155 162 158 159 137 138 137 148 156 149 141 145 141 125 116 110 110 106 102 95 80 75 63 59 49 34 37 40 39 42 42 40 42 42 47 57 64 68 71
187 175 171 149 143 158 138 121 117 115 124 137 138 137 143 147 144 130 124 119 117 104 97 102 81 91 84 66 57 40 29 31 27 41 39 37 39 42 40 44 51 57 65
173 174 163 148 140 136 112 94 84 79 78 105 118 134 143 143 140 130 122 119 116 105 93 92 93 77 85 84 70 47 27 26 32 31 27 33 34 36 40 42 41 39 48
131 147 157 163 168 148 133 132 123 128 33 45 89 119 136 145 144 134 126 121 120 119 124 121 107 87 66 69 69 34 15 25 35 27 21 30 28 31 41 41 41 40 33
154 153 154 164 165 170 172 155 130 123 107 117 76 90 115 139 146 146 135 134 130 121 117 123 118 107 80 71 105 87 23 357 5 18 16 27 24 32 32 34 41 39 34
176 182 174 164 156 161 141 114 91 75 58 45 48 55 73 129 140 142 144 139 136 139 148 156 150 138 143 74 99 135 139 215 313 342 4 18 16 25 19 29 39 37 36
212 188 160 161 150 151 145 147 148 157 170 201 180 152 97 112 128 142 144 143 145 146 154 176 168 153 143 151 87 78 142 157 153 321 339 348 360 19 8 21 33 33 40
199 176 168 154 154 150 150 162 161 161 175 161 119 108 100 70 113 141 149 146 149 154 161 160 151 155 157 162 163 146 108 81 120 152 252 323 343 340 341 346 15 26 26
158 144 141 141 155 158 149 155 164 166 162 152 146 150 157 132 1 142 159 159 161 165 167 166 160 157 162 161 165 167 166 166 182 162 182 236 302 319 336 330 334 338 6
Height
1514 1514 1513 1513 1513 1513 1512 1512 1511 1512 1512 1512 1512 1512 1512 1511 1511 1511 1511 1511 1511 1511 1511 1511 1511 1511 1511 1511 1512 1512 1512 1513 1513 1514 1514 1515 1515 1516 1516 1516 1517 1517 1518
1514 1514 1514 1514 1514 1513 1512 1510 1510 1511 1512 1512 1512 1512 1512 1513 1513 1513 1513 1512 1512 1512 1512 1512 1512 1512 1513 1513 1513 1513 1513 1514 1514 1515 1515 1516 1516 1517 1517 1517 1518 1518 1518
1515 1515 1515 1515 1514 1513 1511 1508 1507 1509 1511 1512 1513 1513 1513 1514 1514 1514 1514 1514 1514 1513 1513 1513 1513 1514 1514 1514 1514 1514 1514 1515 1515 1516 1516 1517 1517 1518 1518 1518 1518 1518 1518
1516 1516 1516 1516 1515 1513 1511 1507 1506 1508 1511 1512 1513 1513 1514 1514 1515 1515 1515 1515 1515 1515 1514 1514 1515 1515 1515 1515 1516 1516 1516 1516 1516 1517 1517 1517 1518 1518 1518 1519 1518 1518 1518
1517 1517 1517 1517 1516 1515 1513 1509 1508 1511 1512 1512 1512 1513 1514 1515 1516 1516 1517 1516 1516 1516 1516 1516 1516 1517 1517 1517 1517 1517 1517 1517 1517 1518 1518 1518 1519 1519 1519 1519 1519 1518 1518
1518 1518 1518 1518 1517 1517 1516 1514 1513 1514 1513 1512 1511 1511 1514 1516 1517 1518 1518 1518 1518 1518 1518 1518 1518 1518 1518 1518 1518 1518 1519 1519 1519 1519 1519 1519 1519 1519 1519 1519 1519 1518 1518
1519 1519 1519 1519 1519 1519 1518 1518 1517 1516 1516 1514 1511 1512 1515 1517 1518 1519 1519 1520 1519 1519 1519 1519 1519 1519 1520 1520 1520 1520 1520 1520 1520 1520 1520 1520 1520 1520 1520 1519 1519 1519 1518
1520 1520 1520 1520 1521 1521 1520 1520 1520 1519 1519 1517 1515 1515 1518 1519 1520 1521 1521 1521 1521 1521 1521 1521 1521 1521 1522 1522 1522 1522 1522 1522 1521 1522 1521 1521 1521 1521 1521 1521 1520 1519 1518
1521 1521 1522 1522 1522 1522 1522 1522 1522 1521 1521 1520 1520 1520 1521 1521 1522 1522 1523 1523 1523 1523 1523 1523 1523 1523 1524 1524 1524 1524 1523 1523 1523 1523 1523 1523 1523 1522 1522 1521 1521 1520 1519
1522 1523 1523 1523 1524 1524 1524 1524 1524 1524 1523 1523 1522 1522 1523 1523 1524 1524 1524 1525 1525 1525 1525 1525 1525 1525 1525 1526 1526 1526 1526 1525 1525 1525 1525 1524 1524 1524 1523 1523 1522 1522 1521
1523 1524 1524 1525 1525 1525 1525 1525 1525 1525 1525 1524 1524 1525 1525 1525 1526 1526 1526 1527 1527 1527 1527 1527 1527 1527 1527 1527 1528 1527 1527 1527 1527 1527 1526 1526 1526 1525 1524 1524 1524 1523 1523
1524 1525 1525 1526 1526 1527 1527 1527 1527 1527 1527 1526 1526 1527 1527 1527 1528 1528 1528 1528 1529 1529 1529 1529 1529 1529 1529 1529 1529 1529 1529 1529 1529 1528 1528 1527 1527 1527 1526 1526 1525 1525 1524
1525 1525 1526 1527 1527 1528 1528 1528 1528 1528 1528 1528 1528 1528 1529 1529 1529 1530 1530 1530 1530 1531 1531 1531 1531 1531 1531 1531 1531 1531 1531 1531 1531 1530 1530 1529 1529 1529 1528 1528 1527 1527 1526
1525 1526 1527 1527 1528 1528 1529 1529 1529 1529 1529 1530 1530 1530 1530 1531 1531 1531 1531 1532 1532 1532 1532 1532 1533 1533 1533 1533 1533 1532 1533 1533 1532 1532 1532 1531 1531 1531 1530 1530 1529 1529 1529
1525 1526 1527 1528 1528 1529 1529 1530 1530 1530 1530 1531 1531 1531 1532 1532 1532 1533 1533 1533 1534 1534 1534 1534 1534 1534 1534 1534 1534 1534 1535 1534 1534 1534 1534 1533 1533 1532 1532 1531 1531 1531 1530
1525 1526 1527 1528 1529 1529 1530 1530 1531 1531 1531 1532 1532 1533 1533 1533 1534 1534 1534 1534 1535 1535 1536 1536 1536 1536 1536 1536 1536 1536 1536 1536 1536 1536 1536 1535 1535 1534 1534 1533 1533 1532 1532
1526 1527 1527 1528 1529 1530 1530 1531 1531 1532 1532 1532 1533 1533 1534 1534 1535 1535 1535 1535 1536 1536 1537 1537 1537 1537 1537 1537 1537 1538 1538 1538 1538 1537 1537 1537 1536 1536 1535 1535 1535 1534 1534
1526 1527 1527 1528 1529 1529 1530 1531 1531 1532 1532 1533 1533 1534 1534 1534 1535 1535 1536 1536 1537 1537 1537 1538 1538 1538 1538 1538 1539 1539 1539 1539 1539 1539 1539 1538 1538 1537 1537 1537 1536 1536 1535
1526 1526 1527 1527 1528 1529 1530 1530 1531 1532 1532 1533 1533 1534 1534 1535 1535 1535 1536 1536 1537 1538 1538 1538 1539 1539 1539 1539 1539 1540 1540 1540 1540 1540 1540 1539 1539 1539 1538 1538 1537 1537 1537
1525 1526 1527 1527 1528 1528 1529 1529 1530 1531 1531 1532 1532 1533 1534 1534 1535 1535 1536 1537 1537 1538 1538 1539 1539 1539 1539 1540 1540 1540 1540 1540 1540 1540 1540 1540 1540 1539 1539 1539 1538 1538 1538
1524 1525 1526 1527 1527 1528 1528 1528 1529 1530 1530 1531 1532 1532 1533 1534 1535 1535 1536 1536 1537 1538 1538 1538 1539 1539 1539 1540 1540 1540 1540 1541 1541 1541 1541 1540 1540 1540 1540 1540 1539 1539 1538
1523 1524 1525 1526 1526 1527 1527 1528 1528 1529 1529 1530 1531 1532 1532 1533 1534 1535 1535 1536 1537 1537 1538 1538 1538 1539 1539 1539 1540 1540 1540 1542 1541 1541 1541 1540 1540 1540 1540 1540 1540 1539 1539
1522 1523 1523 1524 1525 1526 1526 1527 1527 1528 1528 1529 1530 1531 1531 1532 1533 1534 1535 1535 1536 1536 1537 1537 1538 1538 1538 1539 1539 1540 1540 1540 1540 1541 1540 1540 1540 1540 1540 1540 1540 1539 1539
1520 1521 1522 1523 1524 1524 1525 1526 1526 1527 1527 1528 1529 1530 1531 1532 1533 1533 1534 1535 1535 1536 1536 1537 1537 1538 1538 1538 1539 1539 1540 1539 1540 1539 1540 1540 1540 1539 1539 1539 1539 1539 1539
1519 1520 1521 1522 1523 1523 1524 1524 1524 1525 1526 1527 1528 1529 1530 1531 1532 1532 1533 1534 1534 1535 1535 1536 1536 1536 1537 1537 1537 1538 1538 1538 1538 1539 1538 1539 1539 1539 1539 1539 1539 1539 1538
1518 1519 1520 1521 1521 1522 1522 1523 1523 1524 1525 1525 1526 1527 1528 1529 1530 1531 1532 1532 1533 1533 1534 1534 1535 1535 1535 1536 1536 1536 1536 1537 1537 1537 1537 1537 1537 1538 1538 1538 1538 1538 1538